www.pogodaiklimat.ru

Погода и климат >> Архив погоды >> Тринидад и Тобаго >> Аэропорт Пиарко


ПОГОДА в Аэропорту Пиарко

  • Прогноз погоды в Аэропорту Пиарко
  • Монитор погоды в Аэропорту Пиарко

АРХИВ ПОГОДЫ в Аэропорту Пиарко

Время (UTC), дата Ветер
(напр.,м/с)
 
Видим.   Явления Облачность Т
(С)
Тd
(С)
f
(%)
Тe
(С)
Тes
(С)
Комфортность P
(гПа)
Po
(гПа)
Тmin
(С)
Tmax
(С)
R
(мм)
R24
(мм)
S
(см)
21 10.06 В 17 8000 м пыль {ливн. осадки} 9/1 600 м
[Cu hum Ac trans Cs]
+28.7 +22.6 70 +38 +38 очень
душно
1013.9 1011.4
00 11.06 В 5 9000 м пыль {ливн. осадки} 9/1 540 м
[Cu hum Cs]
+26.5 +21.5 74 +34 +34 очень
душно
1015.2 1012.7 +24.0 +32.4 0.0
03 11.06 В 3 12 км пыль 5/0
[Ci sp]
+25.6 +22.3 82 +33 +33 очень
душно
1015.6 1013.1
06 11.06 штиль 0 12 км пыль 9/1 480 м
[Cu med, cong Ci sp]
+24.3 +21.9 86 +31 +31 очень
душно
1014.7 1012.2 +24.0 +32.4
09 11.06 штиль 0 10 км пыль 9/1 480 м
[Cu hum Ci sp]
+24.4 +22.6 90 +32 +32 очень
душно
1014.4 1011.9
12 11.06 В 9 10 км пыль 3/1 600 м
[Cu hum Ci sp]
+28.0 +23.1 75 +38 +38 очень
душно
1015.6 1013.1 +23.3 +32.4
15 11.06 ЮВ 9 16 км пыль 8/8 750 м
[Cu Sc Ci sp]
+30.9 +21.0 56 +38 +39 очень
душно
1015.9 1013.4
18 11.06 В 14 16 км пыль 6/5 750 м
[Cu med, cong]
+31.6 +21.7 56 +40 +40 очень
душно
1014.3 1011.8 +23.3 +33.2 0.0
00 12.06 В 7 16 км пыль 4/1 540 м
[Cu hum Ci sp]
+26.7 +22.6 78 +35 +35 очень
душно
1014.2 1011.7 +23.3 +33.2
03 12.06 В 4 16 км пыль 4/1 480 м
[Cu hum Ci sp]
+25.4 +22.9 86 +34 +34 очень
душно
1014.9 1012.4
06 12.06 штиль 0 16 км пыль 5/1 480 м
[Cu hum Ci sp]
+24.7 +22.6 88 +32 +32 очень
душно
1013.2 1010.7 +23.3 +33.2
09 12.06 штиль 0 16 км пыль 6/3 480 м
[Cu med, cong Ci sp]
+24.2 +22.6 91 +32 +32 очень
душно
1013.6 1011.1
12 12.06 В 10 16 км пыль 4/1 540 м
[Cu Sc Ac lent Ci sp]
+28.5 +22.9 72 +38 +38 очень
душно
1015.3 1012.8 +23.5 +33.2
15 12.06 В 19 18 км осадки на расстоянии 6/5 600 м
[Cu Sc Ac trans Ci sp]
+31.2 +20.5 53 +38 +38 очень
душно
1015.7 1013.2
18 12.06 ЮВ 13 18 км пыль 9/4 750 м
[Cu Sc Ci sp]
+31.5 +21.0 54 +39 +39 очень
душно
1014.2 1011.7 +23.5 +32.7
21 12.06 В 12 18 км пыль 9/1 750 м
[Cu hum Ci sp]
+30.5 +20.5 55 +37 +37 очень
душно
1013.3 1010.8
00 13.06 В 6 18 км пыль 9/1 480 м
[Cu hum Ci sp]
+27.4 +22.7 76 +36 +36 очень
душно
1014.6 1012.1 +23.5 +32.7
03 13.06 В 6 18 км пыль 9/1 480 м
[Cu hum Ci sp]
+26.5 +22.4 78 +35 +35 очень
душно
1014.8 1012.3
06 13.06 штиль 0 18 км пыль 9/1 480 м
[Cu hum Ci sp]
+26.1 +22.0 78 +34 +34 очень
душно
1014.0 1011.5 +23.5 +32.7
12 13.06 В 10 16 км пыль {ливн. осадки} 9/1 540 м
[Cu med, cong Ci sp]
+29.0 +22.9 70 +39 +39 очень
душно
1015.5 1013.0 +24.5 +32.7 0.0
15 13.06 В 13 16 км осадки на расстоянии 6/4 540 м
[Cu Sc Ci sp]
+32.0 +21.3 53 +40 +40 очень
душно
1015.7 1013.2
18 13.06 В 6 17 км осадки на расстоянии {ливн. осадки} 9/3 300 м
[Cb cap Ac As Ci ing]
+27.5 +23.5 79 +37 +40 очень
душно
1014.4 1011.9 +24.5 +33.4 4
21 13.06 В 8 16 км осадки на расстоянии 9/5 300 м
[Cb calv Ac As Ci sp]
+29.4 +23.2 69 +39 +40 очень
душно
1013.4 1010.9
00 14.06 ЮВ 3 17 км осадки на расстоянии {ливн. осадки} 9/3 480 м
[Cu Sc Ac As Cs]
+25.5 +23.4 88 +34 +34 очень
душно
1014.2 1011.7 +23.5 +33.4 0.3
03 14.06 В 9 9000 м слаб. ливневой дождь 9/8 480 м
[Cu Sc Ac As]
+25.4 +23.6 90 +35 +35 очень
душно
1015.8 1013.3
06 14.06 В 8 17 км осадки на расстоянии {ливн. осадки} 9/5 480 м
[Cu Sc Ac As Ci sp]
+25.4 +23.6 90 +35 +35 очень
душно
1014.2 1011.7 +23.5 +33.4
09 14.06 ЮВ 3 16 км слаб. дождь 9/3 480 м
[Cu Sc Ac trans Ci sp]
+24.8 +23.1 90 +33 +33 очень
душно
1014.5 1012.0
12 14.06 В 8 10 км ливневой дождь {снег} 9/9 600 м
[]
+28.1 +24.0 78 +39 +39 очень
душно
1015.5 1013.0 +24.4 +28.1 2
15 14.06 В 12 10 км пыль 4/1 840 м
[Cu hum Ac lent Ci sp]
+31.4 +22.1 58 +40 +40 очень
душно
1016.3 1013.8
18 14.06 В 13 10 км пыль 4/4 840 м
[Cu med, cong]
+32.0 +21.6 54 +40 +40 очень
душно
1013.7 1011.2 +24.4 +32.8
21 14.06 В 12 9000 м пыль 6/4 750 м
[Cu Sc Ci fib]
+31.3 +22.3 59 +40 +40 очень
душно
1012.5 1010.0
00 15.06 ЮВ 5 18 км мгла 8/4 540 м
[Cu Sc Ac As Ci sp]
+27.1 +23.1 79 +36 +36 очень
душно
1014.1 1011.6 +24.4 +32.8
03 15.06 штиль 0 20 км {ливн. осадки} 5/1 480 м
[Cu Sc Ac lent Ci sp]
+25.6 +23.8 90 +35 +35 очень
душно
1014.9 1012.4
06 15.06 штиль 0 20 км осадки на расстоянии {ливн. осадки} 9/3 480 м
[Cu Sc Ac As Ci sp]
+25.2 +23.7 91 +34 +34 очень
душно
1013.2 1010.7 +24.4 +32.8 0.0
09 15.06 штиль 0 17 км осадки на расстоянии {ливн. осадки} 8/3 420 м
[Cu Sc Ac As Ci sp]
+25.1 +23.8 93 +34 +34 очень
душно
1013.3 1010.8
12 15.06 В 6 13 км осадки на расстоянии {ливн. осадки} 9/6 420 м
[Cu Sc Ac As Ci sp]
+26.4 +24.5 89 +37 +38 очень
душно
1015.2 1012.7 +25.1 +32.8 0.0
15 15.06 ЮВ 10 14 км осадки на расстоянии 9/6 180 м
[Cu Sc Ac As Cs]
+30.1 +24.1 70 +42 +42 опасность
перегрева
1015.0 1012.5
18 15.06 ЮВ 15 8000 м осадки на расстоянии {ливн. осадки} 9/8 420 м
[Cu Sc Ac trans Cs]
+29.5 +23.7 71 +40 +40 очень
душно
1013.5 1011.0 +24.7 +31.6 2
21 15.06 В 11 16 км осадки на расстоянии {ливн. осадки} 9/5 500 м
[Cu Sc Cs]
+28.9 +23.3 72 +39 +39 очень
душно
1012.4 1009.9
00 16.06 штиль 0 15 км мгла 9/1 480 м
[Cu med, cong Ac lent Cs]
+27.0 +24.5 86 +38 +38 очень
душно
1013.7 1011.2 +24.7 +31.6 0.0
03 16.06 штиль 0 18 км мгла 9/4 480 м
[Cu med, cong Ac trans Cs]
+26.8 +24.0 85 +37 +37 очень
душно
1014.8 1012.3
06 16.06 В 3 11 км слаб. дождь 8/8 450 м
[Cu Sc]
+25.5 +24.1 92 +35 +35 очень
душно
1013.4 1010.9 +24.7 +31.6
09 16.06 штиль 0 10 км пыль {дождь} 9/5 300 м
[Cu Sc Ci sp]
+25.8 +24.6 93 +36 +36 очень
душно
1013.3 1010.8
12 16.06 В 8 10 км пыль {ливн. осадки, дождь} 9/1 450 м
[Cu Sc Ac As Cs]
+27.2 +25.1 88 +39 +40 очень
душно
1014.7 1012.2 +25.2 +31.6 4
15 16.06 В 12 15 км осадки на расстоянии 10/3 540 м
[Cu med, cong Ac As Cs]
+30.0 +24.5 72 +42 +42 опасность
перегрева
1015.3 1012.8
18 16.06 В 20 13 км осадки на расстоянии 9/3 540 м
[Cu med, cong Ac As Cs]
+31.3 +23.5 63 +42 +42 опасность
перегрева
1013.3 1010.8 +25.2 +32.2
21 16.06 В 10 9000 м пыль 9/1 540 м
[Cu Sc As op Cs]
+28.5 +22.7 71 +38 +38 очень
душно
1013.0 1010.5
00 17.06 В 9 9000 м осадки на расстоянии 9/3 540 м
[Cu Sc Ac As Cs]
+27.0 +24.7 87 +38 +38 очень
душно
1014.2 1011.7 +25.2 +32.4
03 17.06 В 3 8000 м слаб. ливневой дождь 9/8 480 м
[Cu Sc Ac As Cs]
+25.2 +25.0 99 +36 +36 очень
душно
1015.6 1013.1
06 17.06 штиль 0 8000 м слаб. ливневой дождь 9/8 300 м
[Cb cap Ac As Cs]
+26.0 +24.8 93 +37 +37 очень
душно
1013.6 1011.1 +25.2 +32.4
09 17.06 штиль 0 10 км слаб. дождь {гроза} 10/8 210 м
[Cb cap Ac As]
+25.4 +24.8 96 +36 +36 очень
душно
1013.7 1011.2
12 17.06 В 5 4000 м гроза, ливневой дождь 10/8 180 м
[Cb cap Ac As]
+23.9 +23.1 95 +32 +32 очень
душно
1016.4 1013.9 +23.7 +32.4 54
15 17.06 В 12 3000 м слаб. дождь {гроза} 10/9 300 м
[Cu Sc Ac As]
+24.1 +23.1 94 +32 +32 очень
душно
1017.0 1014.5
18 17.06 ЮВ 9 16 км слаб. дождь {гроза} 10/5 420 м
[Cu Sc Ac As Ci sp]
+26.4 +23.9 86 +36 +37 очень
душно
1014.9 1012.4 +23.7 +26.5 16

 

Местоположение метеостанции Аэропорт Пиарко (Тринидад и Тобаго): широта 10.62 долгота -61.34 высота над уровнем моря 15 м.

В архиве по умолчанию представлена погода в Аэропорту Пиарко за последнюю неделю. Архивные данные за месяц целиком и за предыдущие месяцы, начиная с января 2011 года, Вы можете получить, выбрав интересующий диапазон дат из раскрывающегося списка и нажав кнопку "Ввод!".


*Определитесь, кто Вы:
робот инопланетянин человек

Внимание! Время в таблицах - всемирное. Для получения местного времени необходимо прибавить поправку, которая равна -4 ч.

Смотрите также архив погоды в соседних городах и на ближайших метеорологических станциях:

Погода в Краун-Пойнте (Тринидад и Тобаго) (81 км)
Погода в Гуирии (Венесуэла) (106 км)
Погода в Аэропорту Морис Бишоп (Гренада) (161 км)
Погода в Мэтьюрине (Венесуэла) (223 км)
Погода в Арнос Вейл (Сент-Винсент и Гренадины) (280 км)
Погода в Порламаре (Венесуэла) (288 км)
Погода в Кумане (Венесуэла) (311 км)
Погода в Мабаруме (Гайана) (319 км)
Погода в Грантли Адамсе (Барбадос) (339 км)
Погода в Аэропорту Хеванорра (Сент-Люсия) (349 км)

Пояснения к столбцам:

Ветер - указаны скорость ветра в м/с - средняя за 10 мин, порывы в срок и между сроками (в фигурных скобках) и направление, откуда дует ветер: С - северный, СВ - северо-восточный, В - восточный, ЮВ - юго-восточный, Ю - южный, ЮЗ - юго-западный, З - западный, СЗ - северо-западный.
Видимость - горизонтальная дальность видимости в метрах или километрах. При видимости от 1 до 10 км при отсутствии осадков обычно наблюдается дымка, при ухудшении видимости до 1 км и менее - туман. В сухую погоду видимость может ухудшаться дымом, пылью или мглою.
Явления - указаны атмосферные явления, наблюдавшиеся в срок или в последний час перед сроком; фигурными скобками обозначены явления, наблюдавшиеся между сроками (за 1-3 часа до срока); квадратными скобками обозначены град или гололедные отложения с указанием их диаметра в мм.
Облачность - указаны через наклонную черту общая и нижняя облачность в баллах и высота нижней границы облаков в метрах; квадратными скобками обозначены формы облаков: Ci - перистые, Cs - перисто-слоистые, Cc - перисто-кучевые, Ac - высококучевые, As - высокослоистые, Sc - слоисто-кучевые, Ns - слоисто-дождевые, Cu - кучевые, Cb - кучево-дождевые. Подробнее классификацию облаков см. в Атласе облаков (PDF).
T - Температура воздуха - температура, измеренная на высоте 2 м над землей.
Td - Температура точки росы - температура, при понижении до которой содержащийся в воздухе водяной пар достигнет насыщения.
f - Относительная влажность воздуха - влажноcть воздуха, измеренная на высоте 2 м над землей.
Te - Эффективная температура - температура, которую ощущает одетый по сезону человек в тени. Характеристика душности погоды. При расчете учитывается влияние влажности воздуха и скорости ветра на теплоощущения человека.
Tes - Эффективная температура на солнце - температура, которую ощущает человек, с поправкой на солнечный нагрев. Характеристика знойности погоды. Зависит от высоты солнца над горизонтом, облачности и скорости ветра. Ночью, в пасмурную погоду, а также при ветре 12 м/с и более поправка равна нулю.
P - Атмосферное давление - приведенное к уровню моря атмосферное давление.
Po - Атмосферное давление - измеренное на уровне метеостанции атмосферное давление.
Tmin - Минимальная температура - минимум температуры воздуха на высоте 2 м над землей.
Tmax - Максимальная температура - максимум температуры воздуха на высоте 2 м над землей.
R - Количество осадков - Количество выпавших осадков за период времени, мм. При наведении курсора мыши на число - период времени, за который выпало указанное количество осадков.
R24 - Количество осадков - Количество выпавших осадков за 24 часа, мм.
S - Снежный покров - Высота снежного покрова, см. При наведении курсора мыши на число - состояние снежного покрова и степень покрытия местности в баллах.